Simultaneous Nadir Overpasses (SNOs) Predictions

Prediction of SNOs between METOP-B and NOAA-19 Satellite Orbit:

Table of predicted SNOs for the next 14.0 days since TLE Epoch: 3/25/2023
Index Date (METOP-B) Time (METOP-B) Lat,Lon (METOP-B) SZA (METOP-B ) Date (NOAA-19) Time (NOAA-19) Lat,Lon (NOAA-19) SZA (NOAA-19 ) Distance(km) Time Diff (sec)
1 04/05/2023 03:30:06 -80.92, -17.95 103.50 04/05/2023 03:29:08 -80.93, -17.80 103.50 2.66 58
2 04/05/2023 04:20:46 80.93, 149.54 76.51 04/05/2023 04:20:07 80.93, 149.56 76.50 0.38 39
3 04/05/2023 05:11:27 -80.93, -43.12 103.50 04/05/2023 05:11:07 -80.93, -43.20 103.52 1.42 20
4 04/05/2023 06:02:08 80.92, 124.00 76.46 04/05/2023 06:02:06 80.93, 124.15 76.48 2.86 2
5 04/05/2023 06:52:48 -80.94, -68.29 103.51 04/05/2023 06:53:05 -80.93, -68.23 103.50 1.36 17
6 04/05/2023 07:43:29 80.93, 98.83 76.46 04/05/2023 07:44:05 80.93, 98.75 76.46 1.50 36
7 04/05/2023 08:34:10 -80.93, -93.82 103.56 04/05/2023 08:35:05 -80.93, -94.00 103.55 3.06 55



Historial Predications of SNOs between METOP-B and NOAA-19
